DECAYED

OBJECT F, 44843 (Decayed)

Orbit data source: Space-Track

You're viewing an Uncataloged Satellite

Recently launched and/or uncataloged satellites may have evolving metadata. Metadata may include but not limited to: Owner, Maufacturer, Bus, Motor, and Mission.

OBJECT F, 44843 was a satellite owned by Guodian Gaokeji (CN) in LEO that was launched on Sat, 07 Dec 2019 UTC via a KUAIZHOU-1A launch vehicle from the Taiyaun Space Center, China (TSC). Unknown objects in Earth's orbit typically refer to objects detected orbiting the Earth but have not yet been identified or cataloged. These objects could be anything from previously untracked satellites, spent rocket stages, debris from satellite collisions, or even natural meteoroids temporarily captured by Earth's gravity. This object's orbit decayed before it could be identified.

Not visible in the next 10 days
Identifier
44843, 2019-087F
Orbit
Decayed
Last TLE update
11 months ago
Origin
Manufacturer
GUOG?
Mission
Decayed Commercial Imaging
Bus & Motor
CUBESAT 6U?, Unknown motor
Mass
8 kg wet, 8 kg dry
Launch date (UTC)
2019-12-07 (6 years ago)
Launch vehicle
KUAIZHOU-1A
Launch site
Taiyaun Space Center, China (TSC)
Object type
Unknown
Shape & HBR
Box, 0.3 m
Radar Cross Section
0.080 m², Medium (>0.1 m² and < 1m²)

Expand to show TLE details & history

TLE from 11 months ago
0 OBJECT F
1 44843U 19087F   24214.51925386  .07037054  25919-5  86399-3 0  9995
2 44843  97.5018  48.1624 0009226 264.5765  95.4480 16.36199226260085
Epoch: 2024-08-01T12:27Z
TLE epoch observation values (Epoch: 2024-08-01T12:27:43.533Z)
Latitude
Longitude
-89.37631°
Altitude
179.756 km
Speed
7.798 km/s
True Right ascension
03h 12m 38s
True Declination
0° 00' 00"
Sunlit
Object was in daylight at epoch
Visualization orbit readout
Visualization observer readout
Orbital elements
Apogee altitude
178.794 km
Perigee altitude
166.706 km
Semi-major axis
6,550.887 km
Eccentricity
0.00092
Inclination
97.5018°
RAAN
48.1624°
Arg. of periapsis
264.5765°
True anomaly
Unknown
Mean anomaly
95.448°
Eccentric anomaly
Unknown
Mean motion
4.09348 °/min
Orbital period
87.94 mins
BSTAR
0.00086399
Loading maneuver chart data...
Loading SW <> Apogee altitude chart data...
Loading historical data...
Loading historical data...
Loading historical data...
Loading historical data...
Loading historical data...
Loading historical data...
Loading historical data...

OBJECT F Visibility

Observer location: undefined°, undefined°

This satellite is decayed
Span
Click to sort rows by Start time (UTC) header in descending order
Start Az.
Max El. time (UTC)
Max El. Az.
Max El.
End time (UTC)
End Az.
|